Location: Ahstedt
(52.2048°N, 10.1060°E)
Time: 18:32:20
(UTC+00:00)

Cosmos 2082 Rocket - Pass Details

Date: 14 April 2026
Orbit: 831 x 853 km, 71.0° (Epoch: 13 May)

Event Time Altitude Azimuth Distance (km) Brightness Sun altitude
Exits shadow 02:56:28 18° 231° (SW) 1,962 3.5 -13.0°
Maximum altitude 03:00:39 59° 306° (NW) 981 2.4 -12.5°
Drops below altitude 10° 03:06:20 10° 26° (NNE) 2,495 5.6 -11.8°
Sets 03:08:50 0° 31° (NNE) 3,435 6.6 -11.4°
